NOAA 16 DEB, 41094

Orbit data source: Space-Track

NOAA 16 DEB, 41094 is space debris in SSO originally from a launch on Thu, 21 Sep 2000 UTC launched from the Air Force Western Test Range (AFWTR). Debris objects in space refer to the collection of defunct objects orbiting the Earth. Examples of debris include non-operational satellites, rocket bodies, and fragments generated from explosions, collisions, or faulty payload assembly.

Loading next visibility...
Identifier
41094, 2000-055BD
Orbit
SSO
Country
Flag of USUS
Related business
Manufacturer
Unknown
Mission
Spacecraft
Bus & Motor
Unknown
Mass
Unknown
Launch date (UTC)
2000-09-21 (26 years ago)
Launch vehicle
Unknown
Launch site
Air Force Western Test Range (AFWTR)
Object type
Payload
Rocket body
Debris
Shape & HBR
Unknown shape, 0.1 m
Radar Cross Section
Medium (>0.1 m² and <1 m²)

Expand to show TLE details & history
Last TLE update: 3 days ago

TLE from 3 days ago
0 NOAA 16 DEB
1 41094U 00055BD  26169.59583318  .00020996  00000-0  23489-2 0  9998
2 41094  98.9976 118.3410 0024134 272.2183  87.6265 14.86729791553602
Epoch: 2026-06-18T14:17Z
TLE epoch observation values (Epoch: 2026-06-18T14:17:59.986Z)
Latitude
-0.00011°
Longitude
-2.99582°
Altitude
610.499 km
Speed
7.554 km/s
True Right ascension
07h 53m 21s
True Declination
0° 00' 00"
Sunlit
Object was in daylight at epoch
Visualization orbit readout
Latitude
Unknown
Longitude
Unknown
Altitude
Unknown
Speed
Unknown
Apparent Right ascension
Unknown
Apparent Declination
Unknown
Sunlit
N/A
Visualization observer readout
Local Sidereal Time
03:30:06
Azimuth
Unknown
Elevation
Unknown
Doppler factor
Unknown
Orbital elements
Apogee altitude
622.1 km
Perigee altitude
588.392 km
Semi-major axis
6,983.383 km
Eccentricity
0.00241
Inclination
98.9976°
RAAN
118.341°
Arg. of periapsis
272.2183°
True anomaly
87.90285°
Mean anomaly
87.6265°
Eccentric anomaly
87.76467°
Mean motion
3.71916 °/min
Orbital period
96.8 mins
BSTAR
0.0023489
Loading maneuver chart data...
Computing Atmospheric mass density...
Loading historical data...
Loading historical data...
Loading historical data...
Loading historical data...
Loading historical data...
Loading historical data...
Loading historical data...

Documentation

Showing up to 5 results
|